Lapse_Rate
6.5 6.4 6.4 6.4 6.3 6.2 6.1 6.3 6.0 5.7 5.9 6.4 6.4 6.3 6.3 6.5 6.8 6.6 6.8 6.9 6.9 6.5 6.8 7.0 7.1 7.0 6.9 7.0 6.8 6.5 6.6 6.3 6.0 5.8 5.6 5.5 5.4 5.5 5.3 5.2 5.1 5.0 4.9 4.9 4.9 4.7 4.7 4.7 4.8
6.6 6.6 6.7 6.6 6.5 6.0 6.1 6.1 6.4 6.4 6.2 6.1 6.4 6.3 6.0 6.0 6.0 6.1 6.4 6.5 6.9 6.5 6.6 6.8 6.9 6.9 6.9 6.8 6.9 6.6 6.5 6.5 6.2 5.9 5.7 5.4 5.4 5.3 5.4 5.3 5.3 5.2 4.9 4.9 4.8 4.7 4.7 4.7 4.8
6.7 6.6 6.5 6.6 6.4 6.5 6.2 6.3 6.3 6.2 6.3 6.4 6.1 6.0 6.0 5.6 5.8 6.0 6.1 6.3 6.6 6.5 6.5 6.6 6.8 6.7 6.5 6.5 6.5 6.6 6.3 6.3 6.3 6.1 5.9 5.5 5.4 5.3 5.3 5.3 5.3 5.3 5.0 4.7 4.7 4.6 4.6 4.7 4.8
6.6 6.5 6.4 6.7 6.3 5.7 5.5 5.7 5.9 5.8 6.0 6.3 6.0 5.8 5.8 5.8 5.9 5.7 5.8 6.0 6.2 6.4 6.4 6.7 6.6 6.7 6.7 6.3 6.5 6.3 6.6 6.1 6.0 5.9 6.0 5.7 5.5 5.4 5.3 5.3 5.2 5.1 5.0 4.7 4.6 4.6 4.6 4.7 4.8
6.4 6.3 6.5 6.4 6.2 5.6 5.6 5.8 5.8 5.9 5.6 6.0 6.4 5.9 5.7 5.5 5.1 5.4 5.3 5.5 5.9 6.2 6.0 6.4 6.6 6.5 6.7 6.2 6.5 6.5 6.5 6.4 6.1 5.8 6.0 5.8 5.5 5.5 5.4 5.2 5.1 5.1 5.1 4.8 4.6 4.5 4.6 4.8 5.0
6.6 6.7 6.6 6.3 6.1 5.3 5.3 5.5 5.7 5.8 5.8 5.4 5.5 5.5 5.3 5.4 5.1 4.9 5.1 5.3 5.2 5.7 6.0 5.9 6.5 6.4 6.4 5.8 6.3 6.4 6.3 6.4 6.2 6.0 5.6 5.9 5.7 5.5 5.4 5.3 5.2 5.0 5.0 4.9 4.6 4.7 4.9 4.9 5.1
6.5 6.3 6.3 6.0 5.9 5.4 5.3 5.5 5.4 5.3 5.0 4.7 4.8 4.9 4.6 4.4 4.8 4.8 4.9 5.0 5.1 5.4 5.6 5.9 6.0 6.3 6.2 5.7 6.1 6.4 6.4 6.4 6.3 6.1 6.0 5.6 5.9 5.7 5.4 5.3 5.1 5.0 5.0 4.9 4.8 4.9 4.9 5.0 5.1
6.4 6.2 6.1 5.4 5.3 5.0 5.3 5.1 5.2 5.2 5.0 4.3 3.9 4.0 4.3 4.0 4.0 4.4 4.8 4.9 5.1 5.3 5.6 5.6 5.6 6.0 5.8 5.4 5.9 6.2 6.4 6.5 6.3 6.2 6.1 5.8 5.7 5.8 5.4 5.3 5.2 5.0 5.0 4.8 4.8 5.0 5.1 5.0 5.2
6.4 6.0 5.7 5.4 5.2 5.2 5.0 4.9 4.7 4.5 4.2 4.2 3.9 3.5 3.4 3.8 4.4 5.1 5.4 5.4 4.8 4.9 5.4 5.6 5.4 5.2 5.4 5.5 6.1 6.0 6.2 6.3 6.4 6.2 6.1 5.8 5.5 5.8 5.5 5.5 5.3 5.1 5.1 4.9 4.7 5.0 4.9 5.0 5.2
6.0 5.7 5.5 5.2 5.1 4.9 4.8 4.8 4.5 4.3 4.0 3.8 3.3 3.7 4.2 4.9 4.8 5.2 5.4 5.8 5.8 5.1 5.0 5.4 5.3 5.4 5.1 5.5 5.7 5.7 5.9 6.1 6.2 6.6 6.4 5.6 5.5 5.2 6.2 5.7 5.4 5.2 5.0 4.7 4.7 4.6 4.8 4.9 5.2
5.5 5.5 5.0 4.9 4.7 4.8 4.6 4.3 4.2 3.9 3.8 3.6 4.6 5.4 5.1 5.2 5.5 5.8 6.4 6.6 6.4 6.0 5.1 5.1 5.3 5.3 5.4 5.2 5.7 6.1 6.3 6.2 6.2 6.3 5.2 5.2 5.5 5.1 5.4 5.7 5.5 5.3 5.1 4.8 4.5 4.4 4.6 5.1 5.3
5.4 5.0 4.6 4.3 4.4 4.2 3.8 3.9 3.7 3.5 3.9 4.5 5.4 5.8 6.5 6.7 6.7 6.6 6.9 7.2 7.1 6.8 5.7 5.2 5.2 5.4 5.8 5.2 5.4 5.6 5.9 6.1 6.0 6.3 5.7 5.4 5.4 4.9 5.1 5.6 5.7 5.5 5.3 4.6 4.8 4.5 4.7 4.9 5.1
4.6 4.5 4.1 4.1 3.6 3.1 3.1 3.6 3.2 3.8 4.6 5.3 5.5 6.3 6.5 6.5 6.3 6.3 6.5 6.8 7.2 7.3 6.9 6.0 5.5 5.3 5.7 5.7 5.4 5.9 5.7 5.8 6.3 6.1 6.2 5.1 5.3 5.0 4.7 5.7 5.6 5.3 5.2 4.7 4.7 4.4 4.4 4.6 4.7
4.0 4.1 3.8 3.7 3.3 2.5 2.4 3.0 3.0 4.0 4.9 5.4 5.8 6.5 6.2 6.2 6.4 6.4 6.4 6.7 6.8 7.0 7.2 6.5 6.0 5.6 5.7 5.8 5.7 5.7 5.8 5.7 5.8 6.2 5.1 5.5 4.8 5.1 5.0 5.8 5.5 5.3 5.1 4.8 4.6 4.4 4.5 4.6 4.6
4.2 3.8 3.1 3.9 3.4 2.8 2.3 3.5 3.6 4.7 5.2 5.7 5.8 5.7 5.9 6.1 6.1 6.2 6.2 6.8 7.1 6.7 6.7 7.0 6.3 6.0 5.8 5.7 5.6 6.0 5.9 5.5 5.5 5.6 5.4 6.2 5.3 4.9 4.8 5.4 5.6 5.5 5.1 4.8 4.5 4.6 4.3 4.7 4.5
3.9 3.4 3.7 4.1 3.4 2.6 1.9 3.1 4.5 5.3 6.0 5.9 5.8 5.9 5.8 5.7 5.8 6.1 6.0 6.7 7.1 6.7 6.3 6.5 6.7 6.3 5.9 5.8 5.4 5.9 6.0 5.8 5.0 5.7 5.8 5.4 5.0 5.2 4.9 4.9 5.4 5.5 5.2 4.8 4.8 4.7 4.7 4.8 4.8
3.7 3.3 3.0 3.6 2.9 2.0 2.1 2.6 4.4 5.4 5.8 5.8 5.6 5.6 5.7 5.6 5.2 5.2 5.4 6.0 6.4 6.4 6.3 6.4 6.8 6.6 6.4 5.7 5.5 5.6 6.0 6.1 5.4 5.4 4.5 5.5 5.4 5.6 5.5 5.0 5.3 5.4 5.3 5.0 4.9 4.9 4.9 5.1 4.8
2.8 2.6 2.9 3.2 2.9 2.4 2.2 3.0 4.4 5.4 5.7 5.6 5.5 5.5 5.7 5.5 5.1 5.0 5.1 5.4 5.7 6.1 6.1 6.1 6.5 6.9 6.4 6.1 5.7 5.5 5.7 6.0 5.5 5.4 6.0 5.1 4.8 5.8 5.8 5.2 5.2 5.5 5.3 5.0 4.8 5.1 4.8 5.0 5.1
2.5 3.6 3.0 3.4 2.6 1.7 3.0 4.1 5.3 5.5 5.5 5.4 5.3 5.4 5.6 4.9 4.8 5.0 4.6 4.8 5.3 5.8 6.1 6.0 6.1 6.6 6.9 6.4 5.7 5.5 5.7 5.7 5.4 5.1 4.6 4.5 5.0 5.0 5.5 5.6 5.2 5.3 5.5 5.0 5.0 5.0 5.0 4.8 4.8
3.7 4.0 3.1 3.1 3.1 2.5 3.2 4.7 5.9 6.1 6.0 5.2 5.3 5.6 5.0 4.5 5.1 4.8 4.8 4.7 5.2 5.6 6.0 6.1 5.8 6.0 6.5 7.0 6.1 5.7 5.6 5.5 5.0 5.2 5.3 5.1 4.3 4.4 5.6 5.3 4.9 5.5 5.3 4.9 5.0 5.0 4.6 4.7 4.8
3.5 3.4 3.2 2.1 3.1 3.0 2.7 4.4 5.6 5.6 5.6 5.4 5.4 4.9 4.2 4.5 4.9 4.9 5.5 5.4 5.2 5.7 6.0 6.2 6.3 6.0 6.1 6.6 6.6 5.8 5.6 5.5 5.0 4.2 5.3 4.5 4.7 4.7 4.4 4.6 5.6 5.5 4.9 5.0 5.3 4.9 4.6 4.6 4.5
3.6 3.5 3.2 3.5 2.6 2.5 2.6 2.5 5.0 5.0 5.2 5.3 4.9 4.5 5.3 5.5 5.1 4.9 5.2 5.2 5.2 5.5 6.0 6.3 6.4 6.4 6.1 6.2 6.9 6.1 5.5 5.6 5.0 4.1 4.5 5.6 4.5 4.3 4.4 4.5 5.2 5.4 4.8 5.2 5.4 5.2 4.7 4.5 4.5
3.2 3.4 4.1 3.5 2.7 2.2 2.4 2.8 4.6 5.1 4.9 4.9 4.4 4.6 4.7 4.4 4.2 4.2 4.3 4.4 4.8 5.2 5.8 6.2 6.4 6.4 6.5 6.1 6.4 6.6 5.8 5.5 5.1 3.9 4.4 5.2 5.1 4.9 4.7 4.7 4.6 5.3 5.2 5.1 5.4 5.3 4.9 4.5 4.4
2.9 3.9 3.4 3.2 2.4 1.1 2.7 3.0 4.2 4.6 4.6 4.6 4.4 4.4 4.6 4.6 4.3 4.3 4.3 4.5 4.7 5.2 5.5 5.9 5.9 6.1 6.0 6.4 6.1 6.6 6.0 5.5 5.4 4.6 4.5 4.6 4.9 4.7 4.3 5.1 4.6 5.1 5.3 5.9 5.7 5.4 5.3 4.7 4.6
3.0 3.3 1.5 2.4 1.5 1.2 3.4 3.1 4.9 4.8 4.7 4.8 5.0 5.0 4.8 4.4 4.2 4.0 3.7 3.8 4.0 4.2 4.6 5.2 5.1 5.4 5.6 5.5 6.1 5.9 6.1 5.6 5.4 5.2 4.7 4.7 5.2 5.9 4.6 4.9 4.3 4.6 5.2 5.7 6.0 5.5 5.3 4.5 5.0
2.3 2.1 1.5 0.5 1.1 1.3 2.9 2.6 4.5 4.8 4.7 4.6 4.6 4.2 4.4 4.3 4.6 4.7 4.2 3.6 3.3 3.4 3.5 3.6 4.7 4.8 5.0 5.1 5.4 6.0 5.9 5.3 5.3 5.2 4.7 4.8 4.6 5.0 4.7 4.8 4.5 4.8 5.1 5.7 6.2 5.6 5.4 4.9 4.7
2.6 1.9 1.6 0.5 0.9 0.2 2.5 3.4 3.8 4.1 4.1 4.2 4.6 4.8 4.5 4.1 4.0 3.7 3.1 3.2 3.7 3.8 3.8 3.7 3.9 4.8 4.6 4.7 4.8 5.6 5.7 5.4 5.1 5.2 4.7 4.8 4.9 5.1 5.2 5.0 4.7 4.5 4.6 5.7 6.0 5.5 5.2 5.0 4.4
2.4 2.2 1.8 1.7 -0.7 0.0 1.2 2.2 4.1 4.7 4.8 4.5 4.0 3.7 3.6 4.0 4.1 3.7 3.5 3.5 3.7 4.0 3.9 3.9 4.1 4.4 5.2 4.6 4.4 4.9 5.8 5.4 5.1 5.2 4.7 4.9 4.4 4.8 4.9 5.4 4.6 4.5 4.6 5.6 5.7 5.5 5.3 5.1 4.6
2.0 2.0 2.1 1.8 1.5 -0.8 -1.0 2.5 4.3 4.3 4.0 3.6 3.4 3.7 3.9 4.2 4.0 3.2 3.4 3.4 3.2 3.0 2.9 3.2 3.5 3.8 4.9 4.9 4.4 4.3 5.1 5.6 5.3 5.2 4.7 4.3 4.5 4.9 5.5 5.6 5.2 4.8 4.8 5.3 5.4 5.4 5.4 5.3 4.5
1.8 2.0 1.8 1.6 1.6 1.4 0.7 1.9 3.9 4.3 3.7 3.4 3.5 3.6 3.9 3.7 3.1 3.3 3.7 3.5 3.6 2.9 2.5 2.8 2.9 3.2 4.3 4.5 4.5 4.3 4.6 5.6 5.3 5.2 4.8 4.2 4.7 4.9 5.1 5.6 5.3 4.9 4.6 5.0 5.4 5.4 5.4 5.4 4.9
Wind_Speed
22 20 5 4 4 5 3 5 3 6 5 4 6 3 9 5 4 3 3 8 8 8 16 21 30 29 31 32 24 14 16 16 16 18 18 18 18 20 21 21 22 22 22 24 24 25 25 25 26
15 7 4 2 4 3 5 3 4 4 3 5 6 4 7 5 5 4 7 11 10 13 16 22 30 30 31 32 31 10 16 17 16 18 19 19 19 20 20 20 22 22 22 23 24 25 26 25 27
11 4 3 4 3 5 4 2 5 6 6 5 4 7 4 4 8 4 8 10 9 11 16 25 31 31 30 31 32 30 15 19 18 19 20 20 20 20 22 20 20 22 22 23 24 26 27 25 26
3 4 4 3 4 5 4 3 6 6 5 10 3 7 6 5 4 4 8 14 9 10 18 25 30 31 29 27 30 31 28 16 19 21 21 21 21 21 21 20 20 22 24 24 25 26 26 25 25
3 3 3 0 4 6 4 5 6 6 5 7 5 3 5 4 5 8 8 12 12 10 16 21 29 30 30 27 27 28 27 24 17 22 23 23 22 22 21 21 22 23 25 26 26 25 25 26 26
4 3 2 3 3 5 3 7 3 6 6 9 7 3 3 1 8 7 8 8 15 14 17 17 25 29 29 26 26 27 29 26 24 21 25 25 24 22 23 24 23 24 26 26 26 26 25 26 27
3 3 3 3 5 5 3 4 6 5 6 5 5 5 6 5 6 7 8 11 14 18 18 18 17 24 28 24 25 27 27 28 25 24 27 28 28 25 24 25 26 25 25 26 26 26 27 27 29
3 3 4 6 4 3 6 5 4 7 3 5 2 2 4 3 6 8 8 8 10 15 16 19 20 18 21 20 23 25 25 27 27 25 20 28 28 28 27 27 27 27 26 26 27 27 28 29 30
4 4 3 6 5 4 6 6 5 5 2 4 5 7 4 1 5 8 7 11 9 10 9 18 19 19 18 21 19 20 22 23 26 26 25 23 20 24 27 25 29 31 28 28 28 28 30 29 31
5 3 2 4 2 4 7 6 7 5 7 4 5 7 5 6 7 10 10 9 11 12 9 13 17 19 14 19 21 19 18 17 18 21 21 17 19 20 23 26 31 31 33 32 30 32 32 27 23
6 3 3 2 3 4 5 7 6 7 3 4 2 6 10 11 13 11 9 6 6 6 8 10 14 19 14 11 16 9 14 14 15 18 23 20 9 14 15 17 23 26 32 25 29 28 22 20 20
3 4 3 4 2 1 4 4 6 6 6 4 4 6 9 11 8 7 7 7 7 8 9 9 13 15 14 14 9 16 13 14 12 15 20 16 11 11 13 13 13 19 23 22 24 17 21 18 21
3 4 6 6 7 4 5 6 4 8 11 3 7 11 8 7 7 6 6 6 6 6 7 8 10 11 12 15 12 8 10 11 13 13 15 13 10 7 14 13 16 18 19 22 16 14 19 19 21
3 5 8 6 6 2 2 6 2 6 5 4 8 7 7 7 5 5 6 4 6 6 8 8 7 10 13 12 11 9 10 10 15 8 11 18 13 14 9 10 13 16 21 23 18 15 16 15 20
3 5 8 3 4 5 3 6 3 5 3 7 7 6 6 5 3 3 4 5 5 4 7 8 11 12 10 9 11 12 11 8 11 12 17 16 15 14 11 12 12 17 22 23 18 20 20 13 17
4 3 6 8 12 5 2 13 8 7 4 5 7 6 4 4 3 1 3 4 5 5 6 7 9 7 8 8 10 12 13 9 7 14 14 15 19 14 16 10 13 23 22 18 14 13 12 12 11
7 5 6 9 14 8 3 11 5 7 7 6 7 6 5 5 3 1 4 4 6 5 6 6 7 7 7 8 10 11 14 9 10 8 17 11 18 18 18 11 16 26 18 12 14 13 15 13 11
8 6 5 16 6 7 8 15 13 15 10 9 8 6 6 4 1 3 4 5 6 6 6 6 6 7 6 5 6 6 6 7 11 10 17 17 17 17 20 13 16 23 14 14 14 17 13 13 12
6 5 10 17 8 16 13 21 19 13 2 8 7 7 4 2 2 5 4 6 7 7 6 6 7 7 4 3 4 6 4 6 7 8 11 17 18 20 22 6 18 16 16 17 19 17 19 11 15
7 10 8 12 12 14 10 21 15 8 7 7 8 5 3 4 7 6 5 6 7 7 8 8 7 8 8 4 4 4 3 5 6 13 11 14 16 23 15 10 12 21 16 20 20 21 13 12 14
9 4 5 12 19 6 10 8 5 5 7 5 6 5 6 6 6 8 7 10 5 8 12 11 9 10 8 6 5 4 3 3 4 6 7 7 14 14 14 17 7 21 18 17 20 20 24 14 6
5 2 16 18 5 2 5 5 5 3 5 5 4 8 5 6 6 8 14 14 11 12 12 13 11 10 10 10 7 6 7 8 6 7 8 8 17 19 15 15 8 20 17 21 18 17 18 19 15
9 20 15 12 3 4 7 3 7 4 3 3 7 3 4 5 8 12 15 16 14 14 14 13 12 12 11 12 10 7 8 7 5 6 10 11 11 14 20 12 9 11 18 21 21 19 18 16 17
11 7 4 3 3 3 5 4 5 3 4 3 2 6 6 10 14 16 17 17 16 15 14 14 13 12 13 12 11 11 12 10 8 7 8 8 8 8 12 9 8 7 19 23 19 20 21 17 15
9 6 5 8 6 4 4 5 9 8 2 6 1 6 12 18 19 20 20 18 17 17 16 15 16 15 14 14 15 14 12 10 11 9 9 9 8 8 12 8 8 6 16 22 21 18 20 18 16
4 5 4 5 4 6 8 6 5 4 6 4 5 8 15 20 22 23 23 20 19 18 17 17 19 17 14 15 15 13 13 8 8 10 9 8 9 9 10 9 8 8 15 20 21 16 16 17 14
4 4 5 2 2 2 4 7 7 3 4 5 10 20 22 23 24 23 23 20 18 18 18 18 18 19 17 17 14 16 13 13 12 12 11 8 10 10 11 11 10 9 14 19 23 15 16 17 15
4 2 4 3 4 6 5 6 6 7 9 9 17 19 23 25 23 23 22 21 19 18 18 17 17 20 19 16 15 14 14 14 13 11 13 12 11 12 12 13 12 12 15 16 20 18 18 18 12
1 2 3 4 4 4 4 8 7 7 7 11 20 22 25 25 25 24 23 21 20 18 18 16 16 19 19 17 15 16 16 15 14 13 14 12 12 13 13 13 12 12 17 15 17 19 20 19 17
5 6 5 4 6 3 3 8 6 9 6 19 23 23 25 25 25 25 24 23 21 16 19 21 18 17 18 18 17 17 16 15 15 14 15 13 13 13 13 13 13 13 18 18 17 19 20 21 19
Wind_Direction
318 310 300 39 62 69 261 265 43 4 21 332 294 352 106 42 51 135 201 34 33 22 10 7 6 6 7 4 355 208 180 180 169 157 152 147 143 140 139 137 138 136 131 131 129 122 117 114 112
313 312 34 66 89 90 263 19 55 358 288 0 33 64 43 65 24 73 31 340 49 31 15 8 9 5 10 6 360 282 204 192 172 166 158 155 150 147 144 142 139 137 133 129 125 121 116 116 115
312 268 72 103 143 185 193 16 335 340 47 53 38 58 56 4 35 62 323 338 65 37 23 9 9 9 5 8 6 14 258 212 175 176 164 159 155 152 148 147 142 137 133 130 127 123 122 123 122
317 13 19 105 229 340 74 341 325 352 30 21 1 58 78 14 65 337 339 358 35 34 28 14 11 8 4 2 4 7 2 264 201 180 169 162 160 155 150 148 144 137 134 132 131 129 127 126 124
9 55 59 28 243 117 37 356 18 32 24 23 19 32 81 33 50 25 4 18 24 27 30 22 11 7 7 -0 1 3 2 359 256 188 174 164 163 158 150 148 145 142 138 134 135 132 130 129 129
15 86 81 227 240 116 35 6 32 25 38 0 26 44 79 233 43 12 21 30 26 21 15 24 14 6 5 5 357 357 1 353 350 212 180 170 165 162 154 150 148 145 141 140 138 134 130 130 127
79 69 227 281 281 65 46 345 44 0 7 14 300 352 129 22 32 37 29 34 27 21 10 9 11 9 2 5 360 354 353 353 346 338 191 174 168 161 159 153 150 149 146 144 141 135 131 129 125
71 78 324 37 343 76 9 6 5 59 318 307 37 24 48 337 27 45 36 35 28 18 12 5 3 8 5 358 357 354 348 353 349 341 239 185 169 162 159 157 154 152 148 146 141 133 131 131 121
346 60 351 350 7 303 9 13 349 312 328 345 355 70 167 261 53 47 31 23 22 16 8 6 360 358 6 358 352 353 349 350 355 348 337 183 170 164 159 162 158 152 148 145 139 132 126 122 115
57 82 37 350 37 344 343 354 324 352 333 317 357 5 19 53 45 49 42 26 13 7 1 8 358 355 1 357 353 351 345 348 355 344 335 215 171 171 167 168 166 155 152 142 138 131 126 126 120
344 91 347 19 14 23 328 317 329 347 295 7 53 350 8 14 41 41 33 26 12 355 358 358 354 351 347 356 349 343 342 348 344 346 342 354 227 167 160 164 161 160 149 143 135 131 134 131 128
51 34 30 287 317 336 298 272 305 258 259 166 73 51 38 50 40 38 33 17 9 2 347 343 344 346 343 347 350 339 351 340 344 338 334 0 335 203 160 169 152 157 144 141 143 142 134 126 125
40 333 312 289 298 255 264 276 265 286 272 165 71 65 57 57 38 45 39 17 357 345 330 325 335 337 342 344 329 338 327 330 346 323 334 330 319 322 161 163 151 146 143 148 148 141 135 128 121
287 273 281 271 264 296 339 278 95 275 277 158 87 84 80 68 23 36 19 341 344 342 333 323 323 333 343 336 327 322 335 324 302 333 316 336 297 308 200 162 152 153 155 153 150 142 131 129 119
278 321 343 73 350 264 225 342 205 286 60 104 103 99 93 115 69 62 338 354 2 345 331 335 328 340 333 326 324 319 313 328 319 316 312 305 303 319 254 167 160 157 160 150 134 134 132 119 117
330 61 1 317 320 297 82 281 261 280 348 156 134 127 135 145 187 145 358 14 345 341 346 323 322 323 322 320 318 315 307 308 297 298 332 318 306 303 289 189 167 160 159 150 136 136 125 118 113
13 295 302 316 332 334 281 285 280 312 323 172 153 153 176 210 155 202 46 13 338 334 329 322 310 310 312 315 314 311 315 304 308 293 262 323 324 311 291 242 170 161 156 152 144 136 130 121 112
306 325 290 301 293 342 302 289 297 294 256 187 180 180 211 195 78 346 20 355 340 316 311 311 310 306 306 311 309 304 310 309 315 317 329 316 285 313 306 224 166 163 155 153 143 136 129 124 119
292 252 282 285 298 343 302 292 289 280 259 168 180 200 177 114 337 332 357 349 328 315 309 308 304 296 299 299 306 306 305 311 302 280 263 284 313 305 275 289 165 161 157 153 145 135 130 125 124
315 303 285 281 338 317 302 293 295 254 199 180 178 151 164 10 346 300 338 329 310 307 307 306 290 295 293 268 258 259 272 289 281 295 288 278 264 269 307 301 206 160 156 153 144 142 135 138 144
313 229 303 299 324 306 348 315 354 23 94 134 126 154 50 27 328 323 317 316 307 319 319 306 305 295 282 268 276 275 275 285 290 294 300 285 290 277 281 280 294 158 158 153 152 148 144 145 139
293 204 313 306 16 302 64 286 318 282 134 159 142 66 28 347 325 327 325 325 324 318 315 303 301 294 292 289 275 258 273 281 278 281 292 294 288 286 280 279 338 166 160 154 156 158 150 150 154
255 309 293 295 179 58 337 48 279 66 246 243 114 71 353 317 324 326 321 324 315 317 311 300 296 292 287 283 269 263 267 269 268 272 281 286 284 288 282 292 300 209 158 157 158 159 155 161 163
317 312 8 35 95 30 255 104 284 253 208 141 156 353 331 330 327 317 320 319 314 313 304 296 293 286 286 277 276 265 260 261 263 259 268 270 272 267 271 273 281 266 166 159 160 159 162 161 166
4 13 352 357 7 245 237 13 246 278 308 118 15 334 334 329 326 317 318 311 310 309 302 298 294 292 282 277 272 268 262 251 254 255 258 260 274 274 258 266 255 228 181 159 158 160 164 165 168
342 96 130 256 299 299 313 232 263 318 117 16 6 328 314 320 323 319 314 310 306 301 298 293 290 285 275 277 270 267 265 261 258 255 255 254 252 262 280 266 269 193 179 161 161 162 164 166 166
333 42 174 145 238 338 261 296 305 317 327 343 299 334 327 319 315 307 308 305 301 295 289 283 283 281 275 267 263 264 257 255 253 252 250 254 263 263 268 279 261 190 162 172 162 162 163 167 163
122 205 34 14 351 304 286 282 240 301 304 313 330 313 313 314 309 310 308 304 301 294 288 280 277 276 272 263 257 256 255 250 248 251 248 244 249 259 261 264 264 175 160 181 169 162 168 163 164
4 5 40 124 144 204 299 271 227 245 246 302 310 318 313 310 312 310 306 303 301 298 295 286 274 274 272 263 255 253 251 246 240 239 245 243 245 246 252 253 265 185 161 179 175 166 167 162 161
162 181 132 126 280 231 169 269 257 256 245 310 314 309 306 308 309 306 306 306 305 297 296 289 279 269 265 261 255 248 245 239 235 233 235 233 237 238 243 248 255 184 169 172 179 170 169 163 165